FW4213 Weather Reports


time (UTC)temp
C
wind
direction
speed
KPH
gust
KPH
rain 1hr
cm
rain 24hr
cm
rain mn
cm
humidity
%
barometer
mb
20260508074537 11 202 0.0 1.6 0.00 0.00 0.00 59 1017.8
20260508071609 11 202 0.0 1.6 0.00 0.00 0.00 59 1017.7
20260508070109 11 261 0.0 4.8 0.00 0.00 0.00 58 1017.7
20260508064535 11 187 0.0 3.2 0.00 0.00 0.00 57 1017.7
20260508063035 12 202 0.0 3.2 0.00 0.00 0.00 56 1017.7
20260508061537 12 237 0.0 3.2 0.00 0.00 0.00 53 1017.7
20260508054532 13 247 0.0 3.2 0.00 0.00 0.00 52 1017.7
20260508053035 13 231 1.6 4.8 0.00 0.00 0.00 51 1017.7
20260508051534 13 242 1.6 8.0 0.00 0.00 0.00 50 1017.6
20260508050030 13 223 3.2 9.7 0.00 0.00 0.00 49 1017.5
20260508044533 13 211 0.0 6.4 0.00 0.00 0.00 49 1017.5
20260508043109 13 201 0.0 6.4 0.00 0.00 0.00 47 1017.5
20260508041530 14 215 1.6 6.4 0.00 0.00 0.00 43 1017.4
20260508033036 16 237 4.8 14.5 0.00 0.00 0.00 33 1016.8
20260508031537 16 248 4.8 14.5 0.00 0.00 0.00 31 1016.7
20260508023029 18 245 6.4 16.1 0.00 0.00 0.00 25 1016.3
20260508020030 20 254 6.4 22.5 0.00 0.00 0.00 24 1016.2
20260508014535 20 267 4.8 20.9 0.00 0.00 0.00 25 1016.1
20260508013036 21 277 3.2 16.1 0.00 0.00 0.00 24 1016.3
20260508011532 21 274 6.4 16.1 0.00 0.00 0.00 24 1016.5
20260508010032 21 288 4.8 17.7 0.00 0.00 0.00 25 1016.7
20260508003031 22 277 4.8 16.1 0.00 0.00 0.00 23 1016.7
20260508001536 23 285 3.2 14.5 0.00 0.00 0.00 22 1016.7
20260508000039 23 283 6.4 19.3 0.00 0.00 0.00 22 1016.7
20260507234536 23 270 4.8 17.7 0.00 0.00 0.00 23 1016.7
20260507231528 23 272 4.8 14.5 0.00 0.00 0.00 27 1016.9
20260507230032 23 257 6.4 16.1 0.00 0.00 0.00 29 1017.0
20260507224534 23 259 6.4 17.7 0.00 0.00 0.00 30 1017.2
20260507220033 23 274 8.0 27.4 0.00 0.00 0.00 29 1017.4
20260507210030 22 247 4.8 17.7 0.00 0.00 0.00 36 1017.8
20260507204608 22 283 6.4 17.7 0.00 0.00 0.00 37 1017.9
20260507203037 21 283 6.4 20.9 0.00 0.00 0.00 37 1018.1
20260507201537 21 278 4.8 20.9 0.00 0.00 0.00 38 1018.3
20260507200110 21 282 4.8 16.1 0.00 0.00 0.00 39 1018.4
20260507194532 20 284 6.4 16.1 0.00 0.00 0.00 37 1018.6
20260507193034 20 269 4.8 19.3 0.00 0.00 0.00 36 1018.9
20260507191529 21 263 4.8 19.3 0.00 0.00 0.00 36 1019.0
20260507190105 20 254 3.2 16.1 0.00 0.00 0.00 36 1019.1
20260507184610 18 262 3.2 12.9 0.00 0.00 0.00 41 1019.4
20260507181537 18 266 4.8 17.7 0.00 0.00 0.00 48 1019.7
20260507174642 17 264 6.4 17.7 0.00 0.00 0.00 51 1019.8
20260507171605 16 247 6.4 20.9 0.00 0.00 0.00 55 1020.0
20260507170034 16 258 8.0 24.1 0.00 0.00 0.00 57 1020.2
20260507161539 15 246 4.8 16.1 0.00 0.00 0.00 62 1020.6
20260507160036 15 246 3.2 9.7 0.00 0.00 0.00 63 1020.8
20260507151536 13 251 3.2 8.0 0.00 0.00 0.00 69 1021.1
20260507150038 13 235 4.8 14.5 0.00 0.00 0.00 71 1021.1
20260507144537 12 251 4.8 17.7 0.00 0.00 0.00 73 1021.1
20260507143032 11 235 3.2 12.9 0.00 0.00 0.00 77 1021.0
20260507141532 11 118 1.6 8.0 0.00 0.00 0.00 81 1020.9
20260507140141 10 212 1.6 8.0 0.00 0.00 0.00 83 1020.7
20260507134612 10 238 1.6 16.1 0.00 0.00 0.00 84 1020.6
20260507133032 10 218 1.6 11.3 0.00 0.00 0.00 83 1020.4
20260507131531 10 249 1.6 6.4 0.00 0.00 0.00 81 1020.3
20260507130109 10 23 1.6 9.7 0.00 0.00 0.00 81 1020.2
20260507124643 11 72 3.2 9.7 0.00 0.00 0.00 79 1020.1
20260507123030 11 199 1.6 14.5 0.00 0.00 0.00 79 1020.1
20260507120036 11 278 1.6 12.9 0.00 0.00 0.00 78 1020.0
20260507114609 11 326 3.2 19.3 0.00 0.00 0.00 78 1019.9
20260507113031 12 239 1.6 9.7 0.00 0.00 0.00 77 1019.8
20260507111531 12 313 6.4 22.5 0.00 0.00 0.00 77 1019.8
20260507110030 12 319 4.8 25.7 0.00 0.00 0.00 78 1019.6
20260507104532 12 139 4.8 19.3 0.00 0.00 0.00 78 1019.4
20260507103032 12 229 6.4 19.3 0.00 0.00 0.00 78 1019.4
20260507101531 12 237 4.8 17.7 0.00 0.00 0.00 78 1019.4
20260507100039 12 248 4.8 20.9 0.00 0.00 0.00 78 1019.3
20260507094531 12 236 6.4 17.7 0.00 0.00 0.00 77 1019.4
20260507091530 13 249 6.4 16.1 0.00 0.00 0.00 76 1019.6
20260507090031 13 230 4.8 14.5 0.00 0.00 0.00 76 1019.6
20260507084534 13 245 6.4 22.5 0.00 0.00 0.00 76 1019.6
20260507083109 13 255 6.4 19.3 0.00 0.00 0.00 76 1019.3
20260507081531 13 250 6.4 24.1 0.00 0.00 0.00 76 1019.2